User: anonymous   Login
Location: Ostrava
(49.8330°N, 18.2830°E)
Time: 17:03:06
(UTC+02:00)
Language:

Iridium 7 - Orbit

View from above orbital plane
View from above orbital plane
View from above satellite
View from above satellite

Ground track
Ground track

The orbit data is extracted from the following two-line orbital elements,

1 24793U 97020B   18172.92831249 +.00000075 +00000-0 +19873-4 0  9994
2 24793 086.3970 164.4698 0002230 087.9947 272.1504 14.34257032105962
Epoch (UTC): 21 June 2018 22:16:46
Eccentricity: 0.0002230
inclination: 86.3970°
perigee height: 776 km
apogee height: 779 km
right ascension of ascending node: 164.4698°
argument of perigee: 87.9947°
revolutions per day: 14.34257032
mean anomaly at epoch: 272.1504°
orbit number at epoch: 10596

The dashed part of the orbit path shows where the satellite is in the earth's shadow,  

DLR